Regional Weather Roundup
Issued by NWS

Home | Current Version | Previous Version | Text Only | Print | Product List | Glossary On
Versions: 1 2 3 4 5 6 7 8 9 10 11 12 13 14 15 16 17 18 19 20 21 22 23 24 25 26 27 28 29 30 31 32 33 34 35 36 37 38 39 40 41 42 43 44 45 46 47 48 49 50
000
ASUS42 KTBW 010617
RWRFL
FLORIDA REGIONAL WEATHER ROUNDUP
NATIONAL WEATHER SERVICE TAMPA BAY RUSKIN FL
200 AM EDT SAT AUG 01 2015

NOTE: "FAIR" INDICATES FEW OR NO CLOUDS BELOW 12,000 FEET WITH NO
SIGNIFICANT WEATHER AND/OR OBSTRUCTIONS TO VISIBILITY.


FLZ001>010-012>015-112-114-115-010700-
PANHANDLE FLORIDA

CITY           SKY/WX    TMP DP  RH WIND       PRES   REMARKS
PENSACOLA      PTCLDY    76  73  91 N5        29.88F
PENSACOLA NAS  PTCLDY    75  73  93 CALM      29.88F
MILTON NAS     PTCLDY    74  73  97 CALM      29.90F
CRESTVIEW      MOCLDY    76  75  97 CALM      29.91F FOG
DUKE FIELD     FAIR      77  75  94 CALM      29.89F
VALPARAISO     MOCLDY    80  75  84 CALM      29.89F
MARY ESTHER    MOCLDY    77  73  88 NE1       29.87F
TRI COUNTY     FAIR      75  73  93 NE3       29.90F
PANAMA CITY    FAIR      79  76  90 E3        29.88F
TYNDALL AFB    MOCLDY    79  77  95 CALM      29.89S
APALACHICOLA   MOCLDY    81  77  88 S5        29.87F

STATION/POSITION SKY/WX   TEMP    WIND        PRES    WAVE   SWELL
                          AIR SEA DIR/SP/G            HT/PER HT/PER
                          (F)     (DEG/KT/KT) (MB)    (FT/S) (FT/S)
30.1N   87.6W              84 86   30/  8/  8 1011.3F   1
29.2N   88.2W              82 88   80/ 19/ 37 1011.7F   1/ 4
28.8N   86.0W              82 86  180/ 14/ 16 1011.9F   3/ 6   2/ 9
PANAMA CITY BEAC           80 85   20/  5/  7 1012.3F
CAPE SAN BLAS    NOT AVBL
TOWER C                    83     170/ 10/ 11 1011.8F
28.5N   84.5W              83 85  220/ 21/ 25 1012.6F   5/ 7

$$
FLZ011-016>038-118-127-128-134-139-239-010700-
NORTH FLORIDA

CITY           SKY/WX    TMP DP  RH WIND       PRES   REMARKS
MARIANNA       CLOUDY    74  74 100 NW5       29.89F
TALLAHASSEE    CLOUDY    81  76  84 SE3       29.87F
PERRY          CLOUDY    76  76 100 SE6       29.90F
CROSS CITY       N/A     78  76  93 S5        29.91F
LAKE CITY      CLOUDY    75  75 100 SE5       29.92F
GAINESVILLE    LGT RAIN  75  74  96 S7        29.95F
MAYPORT NAS    CLEAR     77  74  90 S6        29.94S
JACKSONVILLE   PTCLDY    76  75  97 S5        29.93F
JAX NAS        PTCLDY    82  74  76 S16       29.94F
JAX CRAIG      PTCLDY    79  74  84 S6        29.93F
JAX CECIL      PTCLDY    75  73  94 S5        29.94F
FERNANDINA BEA FAIR      81  77  89 SW6       29.92F
ST AUGUSTINE   PTCLDY    78  74  87 SW12      29.95F

STATION/POSITION SKY/WX   TEMP    WIND        PRES    WAVE   SWELL
                          AIR SEA DIR/SP/G            HT/PER HT/PER
                          (F)     (DEG/KT/KT) (MB)    (FT/S) (FT/S)
SHELL POINT                83     210/  4/  5   N/A
KEATON BEACH               78     160/  7/  9 1012.6F
CEDAR KEY                  83     220/ 15/ 26 1013.4F
FERNANDINA                 78 85  240/  5/  6 1013.5F
30.7N   81.3W                 83                N/A     3/ 5
MAYPORT                    79 83  200/  5/  8 1014.3F
31.4N   80.9W              82 83  210/ 12/ 12 1013.6F   3/ 5   2/ 5
ST AUGUSTINE               77 82  210/  5/  6 1014.8F

$$
FLZ040-043>046-052-053-057-058-063-144-010700-
INTERIOR CENTRAL FLORIDA

CITY           SKY/WX    TMP DP  RH WIND       PRES   REMARKS
OCALA          MOCLDY    75  73  94 S5        29.96F
THE VILLAGES     N/A     77  77 100 SE6       29.87F
LEESBURG       MOCLDY    77  72  84 S12       29.98F
SANFORD        CLOUDY    77  72  84 S8        29.98F
ORLANDO EXEC   CLOUDY    77  73  87 S13       29.99F
ORLANDO INTL   CLOUDY    76  72  87 S10       30.00F
WINTER HAVEN   CLOUDY    75  72  90 S13       30.02F
LAKELAND       CLOUDY    73  70  88 S8        30.01F
BARTOW         MOCLDY    72 N/A N/A CALM      30.02F
OKEECHOBEE       N/A     73  72  94 W6        30.02F

$$
FLZ041-047-054-059-064-141-147-010700-
EAST CENTRAL FLORIDA

CITY           SKY/WX    TMP DP  RH WIND       PRES   REMARKS
DAYTONA BEACH  CLOUDY    76  72  87 S8        29.98F
DELAND           N/A     77  72  83 CALM      29.99F
JFK SPACE CTR  CLOUDY    77  72  84 SW9       29.98F
CAPE CANAVERAL CLOUDY    77  72  83 S5        29.98F
PATRICK AFB    CLOUDY    77  73  85 SW13      29.99F
MELBOURNE      CLOUDY    76  72  87 SW10      30.00F
VERO BEACH     CLOUDY    76  70  82 S7        30.04R
FT PIERCE      CLOUDY    76  71  85 S5        30.02S
STUART         CLOUDY    73  68  83 S7        30.04S

STATION/POSITION SKY/WX   TEMP    WIND        PRES    WAVE   SWELL
                          AIR SEA DIR/SP/G            HT/PER HT/PER
                          (F)     (DEG/KT/KT) (MB)    (FT/S) (FT/S)
28.5N   80.2W              79 81  220/ 16/ 17 1016.1F
28.9N   78.5W              82 84  210/ 16/ 19 1017.1R
TRIDENT PIER               77 79  200/  9/ 12 1016.7F
28.4N   80.5W                 79                N/A     2/ 4
27.5N   80.2W                 78                N/A     1/11

$$
FLZ050-056-061-142-242-148-248-149-249-151-251-155-255-
160-260-010700-
WEST CENTRAL FLORIDA

CITY           SKY/WX    TMP DP  RH WIND       PRES   REMARKS
CRYSTAL RIVER  CLOUDY    75  73  94 S5        29.95F
INVERNESS      CLOUDY    77  75  94 S7        29.97F
BROOKSVILLE    CLOUDY    76  74  93 S7        29.98F
ZEPHYRHILLS    CLOUDY    73  73 100 CALM      30.00F
CLEARWATER     MOCLDY    78  74  87 S6        29.98S
TAMPA INTL     MOCLDY    77  74  90 SE5       29.99S
TAMPA EXEC     CLOUDY    77  72  83 S6        30.00F
PLANT CITY     CLOUDY    77  73  88 S7        30.02F
MACDILL AFB    MOCLDY    77  77 100 S10       29.98F
PETER O KNIGHT MOCLDY    81  77  89 S12       29.99F
ST PETERSBURG  MOCLDY    81  76  84 SW6       29.97F
SARASOTA       CLOUDY    81  75  82 SE6       29.98F
VENICE         CLOUDY    75  73  94 SE5       30.01F

STATION/POSITION SKY/WX   TEMP    WIND        PRES    WAVE   SWELL
                          AIR SEA DIR/SP/G            HT/PER HT/PER
                          (F)     (DEG/KT/KT) (MB)    (FT/S) (FT/S)
CEDAR KEY                  83     220/ 15/ 26 1013.4F
28.5N   84.5W              83 85  220/ 21/ 25 1012.6F   5/ 7
27.3N   84.2W                 84                N/A     6/ 6
CLEARWATER BEACH           83 83  210/ 18/ 20 1015.2F
MIDDLE TAMPA BAY           78     170/ 11/ 14 1016.0R
VENICE                     76 85  120/  5/  6 1015.4F

$$
FLZ066-069-070-075>078-162-262-165-265-010700-
SOUTHWEST FLORIDA AND KEYS

CITY           SKY/WX    TMP DP  RH WIND       PRES   REMARKS
PUNTA GORDA    LGT RAIN  74  74 100 S13       30.06R
FT MYERS       RAIN      76  74  93 W5G17     30.05R FOG
SOUTHWEST INTL TSTM      74  72  93 NW9G23    30.05R VSB 1
NAPLES         CLOUDY    83  78  85 S5        30.01F
MARCO ISLAND   PTCLDY    81  73  78 S5        30.02F
MARATHON       PTCLDY    85  79  82 VRB6      30.02F HX  98
KEY WEST NAS   PTCLDY    83  77  82 SE8       30.03F
KEY WEST INTL  PTCLDY    85  78  80 E7        30.03F HX  96

STATION/POSITION SKY/WX   TEMP    WIND        PRES    WAVE   SWELL
                          AIR SEA DIR/SP/G            HT/PER HT/PER
                          (F)     (DEG/KT/KT) (MB)    (FT/S) (FT/S)
VENICE                     76 85  120/  5/  6 1015.4F
NAPLES                        86              1018.0R
26.0N   85.6W              84 84  220/ 10/ 12 1014.8F   3/ 6   3/ 6
DRY TORTUGAS               85     140/  4/  4 1017.2R
NW FL BAY                  87     130/  9/ 11 1017.2
SAND KEY                   85     120/  8/ 10 1016.9F
SOMBRERO KEY               84     130/ 13/ 14 1017.2F
LONG KEY                   85 89  140/ 10/ 12 1017.3F
MOLASSES REEF              85 87  150/  9/ 10 1016.6F

$$
FLZ067-068-071>074-168-172>174-010700-
SOUTHEAST FLORIDA

CITY           SKY/WX    TMP DP  RH WIND       PRES   REMARKS
W PALM BEACH   CLOUDY    77  71  82 SW5       30.04F
FT LAUDER-EXEC CLOUDY    78  69  73 CALM      30.03F
FT LAUDERDALE  CLOUDY    77  71  82 NW3       30.03F
POMPANO BEACH  CLOUDY    79  69  71 W5        30.03F
PEMBROKE PINES CLOUDY    77  70  79 CALM      30.04F
OPA LOCKA      CLOUDY    77  70  79 CALM      30.04F
MIAMI          CLOUDY    77  70  79 CALM      30.04F
WEST KENDALL   CLOUDY    74  74 100 CALM      30.03F
HOMESTEAD      CLOUDY    76  72  85 N5        30.03F

STATION/POSITION SKY/WX   TEMP    WIND        PRES    WAVE   SWELL
                          AIR SEA DIR/SP/G            HT/PER HT/PER
                          (F)     (DEG/KT/KT) (MB)    (FT/S) (FT/S)
PORT EVERGLADES            81     230/  3/  5 1016.9F
VIRGINIA KEY               81 86  340/  3/  5 1017.0R
LAKE WORTH                 81 82  180/  7/  8 1017.0S
SETTLEMENT POINT           80     140/  6/  7 1017.1F

$$



USA.gov is the U.S. government's official web portal to all federal, state and local government web resources and services.